Location: Goll?ig?dem
(16.6773°N, 80.7332°E)
Time: 06:48:24
(UTC+00:00)

BREEZE M DEB (TANK) - Pass Details

Date: 21 April 2021
Orbit: 273 x 14498 km, 49.5° (Epoch: 05 May)

Event Time Altitude Azimuth Distance (km) Brightness Sun altitude
Exits shadow 22:32:43 43° 279° (W) 1,572 4.1 -24.7°
Maximum altitude 22:34:48 60° 224° (SW) 1,663 4.3 -24.2°
Drops below altitude 10° 22:55:44 10° 150° (SSE) 8,873 8.5 -19.6°
Sets 23:09:24 0° 148° (SSE) 12,672 9.4 -16.5°
